This is the latest recevied weather packets stored in our database for station/object KI5RAB. If no packets are shown the sender has not sent any weather packets the latest 1 day(s).
| Time | Temp. | Humidity | Pressure | Rain* | Wind** | Luminosity | Snow |
|---|---|---|---|---|---|---|---|
| 1778020409 | 30.56° C | 67% | 1008.6 hPa | 0 mm | 0.45 m/s, 302° | 350 W/m² | - |
| 1778020104 | 30.56° C | 67% | 1008.6 hPa | 0 mm | 0 m/s | 218 W/m² | - |
| 1778019800 | 30° C | 68% | 1008.7 hPa | 0 mm | 0.45 m/s, 36° | 282 W/m² | - |
| 1778019498 | 30° C | 71% | 1008.6 hPa | 0 mm | 0 m/s | 276 W/m² | - |
| 1778019194 | 29.44° C | 70% | 1008.6 hPa | 0 mm | 0 m/s | 158 W/m² | - |
| 1778018892 | 29.44° C | 70% | 1008.9 hPa | 0 mm | 0.45 m/s, 320° | 138 W/m² | - |
| 1778018589 | 30° C | 70% | 1008.8 hPa | 0 mm | 0.45 m/s, 318° | 133 W/m² | - |
| 1778018287 | 30° C | 69% | 1008.9 hPa | 0 mm | 0 m/s | 176 W/m² | - |
| 1778017984 | 30.56° C | 67% | 1009.1 hPa | 0 mm | 0.45 m/s, 3° | 179 W/m² | - |
| 1778017682 | 30.56° C | 68% | 1008.9 hPa | 0 mm | 0.45 m/s, 315° | 185 W/m² | - |
| 1778017379 | 30° C | 69% | 1009.1 hPa | 0 mm | 0.89 m/s, 295° | 376 W/m² | - |
| 1778017076 | 30° C | 67% | 1009.1 hPa | 0 mm | 0.45 m/s, 324° | 220 W/m² | - |
| 1778016774 | 29.44° C | 68% | 1009.1 hPa | 0 mm | 0.45 m/s, 319° | 164 W/m² | - |
| 1778016469 | 30° C | 68% | 1009.2 hPa | 0 mm | 0.89 m/s, 347° | 222 W/m² | - |
| 1778016167 | 30.56° C | 65% | 1009.4 hPa | 0 mm | 0.89 m/s, 326° | 238 W/m² | - |
| 1778015863 | 30° C | 67% | 1009.4 hPa | 0 mm | 0.45 m/s, 334° | 532 W/m² | - |
| 1778015561 | 30° C | 68% | 1009.4 hPa | 0 mm | 0.89 m/s, 286° | 231 W/m² | - |
| 1778015257 | 30.56° C | 66% | 1009.4 hPa | 0 mm | 0.45 m/s, 281° | 317 W/m² | - |
| 1778014954 | 30° C | 67% | 1009.6 hPa | 0 mm | 0.45 m/s, 311° | 405 W/m² | - |
| 1778014651 | 30° C | 67% | 1009.7 hPa | 0 mm | 0 m/s | 324 W/m² | - |
| 1778014350 | 30° C | 69% | 1009.8 hPa | 0 mm | 0.45 m/s, 321° | 242 W/m² | - |
| 1778014046 | 30° C | 68% | 1010 hPa | 0 mm | 0.45 m/s, 286° | 437 W/m² | - |
| 1778013744 | 30° C | 67% | 1010.1 hPa | 0 mm | 0 m/s | 417 W/m² | - |
| 1778013441 | 30° C | 68% | 1010 hPa | 0 mm | 0.45 m/s, 327° | 401 W/m² | - |
| 1778013138 | 30° C | 70% | 1010.1 hPa | 0 mm | 0.45 m/s, 302° | 285 W/m² | - |
* Rain latest hour (hover to see other rain measurements)
** Current wind speed in m/s (hover to see current wind gust speed)